Showing default

YAOGAN 30, 41473

Orbit data source: Space-Track

YAOGAN 30, 41473 is a payload satellite owned by PLA SSF (CN) in SSO that was launched on Sun, 15 May 2016 UTC via a CHANG ZHENG 2D launch vehicle from the Jiuquan Satellite Launch Center, China (JSC). Payload-class satellites include a variety of spacecraft equipped with specific instruments for various scientific and technological missions. These include communications satellites like Starlink; space stations such as the ISS; scientific satellites like the Hubble; Earth observation satellites from companies like Planet Labs, Umbra, and HawkEye 360; GPS; miniature CubeSats for education and research; and military/defense satellites.

Loading next visibility...
Identifier
41473, 2016-029A
Orbit
SSO
Country
Flag of CNCN / PRC
Related business
Manufacturer
DFH
Mission
Operational Defense Imaging
Bus & Motor
CAST-2000?, Unknown motor
Mass
800 kg wet, 800 kg dry
Launch date (UTC)
2016-05-15 (10 years ago)
Launch vehicle
CHANG ZHENG 2D
Launch site
Jiuquan Satellite Launch Center, China (JSC)
Object type
Payload
Rocket body
Debris
Shape & HBR
Box + 2 Pan, 2.0 m
Radar Cross Section
5.141 m², Large (>1 m²)

Expand to show TLE details & history
Last TLE update: 23 hours ago

TLE from 23 hours ago
0 YAOGAN 30
1 41473U 16029A   26172.49408544  .00000546  00000-0  86025-4 0  9993
2 41473  97.9005 222.2988 0014588 215.1804 144.8443 14.76272435544306
Epoch: 2026-06-21T11:51Z
TLE epoch observation values (Epoch: 2026-06-21T11:51:28.982Z)
Latitude
-0.00009°
Longitude
134.7345°
Altitude
652.51 km
Speed
7.527 km/s
True Right ascension
14h 49m 11s
True Declination
0° 00' 00"
Sunlit
Object was in full shadow at epoch
Visualization orbit readout
Latitude
Unknown
Longitude
Unknown
Altitude
Unknown
Speed
Unknown
Apparent Right ascension
Unknown
Apparent Declination
Unknown
Sunlit
N/A
Visualization observer readout
Local Sidereal Time
21:26:26
Azimuth
Unknown
Elevation
Unknown
Doppler factor
Unknown
Orbital elements
Apogee altitude
648.396 km
Perigee altitude
627.925 km
Semi-major axis
7,016.298 km
Eccentricity
0.00146
Inclination
97.9005°
RAAN
222.2988°
Arg. of periapsis
215.1804°
True anomaly
144.94041°
Mean anomaly
144.8443°
Eccentric anomaly
144.89237°
Mean motion
3.69302 °/min
Orbital period
97.48 mins
BSTAR
0.000086025
Loading maneuver chart data...
Computing Atmospheric mass density...
Loading historical data...
Loading historical data...
Loading historical data...
Loading historical data...
Loading historical data...
Loading historical data...
Loading historical data...
Other satellites on launch #29 in the year 2016 (2016-05-15 UTC)

Documentation

Showing up to 5 results
|